QPF
0.00 0.00 0.00 0.00 0.00 0.00 0.00 0.01 0.03 0.04 0.04 0.03 0.04 0.06 0.07 0.03 0.02 0.03 0.04 0.06 0.06 0.04 0.03 0.05 0.05 0.05 0.04 0.03 0.03 0.04 0.04 0.05 0.05 0.05 0.05 0.04 0.03 0.03 0.03 0.02 0.02 0.02 0.02 0.03
0.00 0.00 0.00 0.01 0.01 0.00 0.00 0.00 0.00 0.01 0.05 0.06 0.06 0.03 0.03 0.02 0.02 0.02 0.03 0.02 0.02 0.02 0.02 0.04 0.07 0.08 0.07 0.05 0.03 0.03 0.02 0.03 0.04 0.04 0.05 0.03 0.02 0.03 0.02 0.02 0.02 0.03 0.03 0.03
0.00 0.00 0.01 0.02 0.01 0.01 0.01 0.00 0.01 0.02 0.05 0.03 0.02 0.02 0.02 0.03 0.03 0.03 0.02 0.02 0.01 0.01 0.01 0.02 0.03 0.05 0.07 0.07 0.05 0.03 0.02 0.03 0.04 0.05 0.04 0.02 0.02 0.01 0.01 0.02 0.03 0.04 0.04 0.05
0.00 0.00 0.01 0.02 0.01 0.00 0.00 0.01 0.01 0.02 0.02 0.01 0.02 0.02 0.01 0.02 0.03 0.03 0.02 0.01 0.02 0.02 0.01 0.01 0.01 0.02 0.04 0.07 0.07 0.06 0.04 0.04 0.03 0.03 0.04 0.03 0.02 0.01 0.02 0.03 0.04 0.05 0.05 0.05
0.01 0.01 0.02 0.03 0.02 0.01 0.01 0.02 0.02 0.01 0.02 0.01 0.02 0.03 0.04 0.02 0.03 0.03 0.03 0.02 0.01 0.02 0.01 0.01 0.01 0.01 0.02 0.04 0.06 0.08 0.08 0.07 0.05 0.04 0.04 0.04 0.04 0.04 0.04 0.05 0.05 0.05 0.05 0.05
0.01 0.02 0.05 0.05 0.03 0.01 0.01 0.03 0.02 0.01 0.03 0.04 0.04 0.06 0.07 0.05 0.06 0.06 0.05 0.05 0.01 0.01 0.01 0.01 0.01 0.01 0.01 0.02 0.03 0.06 0.08 0.08 0.07 0.06 0.06 0.06 0.07 0.08 0.07 0.07 0.06 0.05 0.06 0.06
0.02 0.03 0.05 0.04 0.02 0.00 0.03 0.04 0.01 0.01 0.02 0.05 0.07 0.06 0.07 0.07 0.08 0.05 0.03 0.02 0.02 0.01 0.02 0.03 0.02 0.01 0.01 0.02 0.03 0.04 0.05 0.06 0.07 0.08 0.08 0.09 0.08 0.07 0.07 0.08 0.08 0.07 0.06 0.06
0.01 0.02 0.03 0.01 0.01 0.01 0.02 0.01 0.01 0.03 0.04 0.04 0.05 0.06 0.06 0.04 0.03 0.02 0.02 0.02 0.03 0.03 0.03 0.03 0.03 0.02 0.03 0.03 0.03 0.05 0.07 0.10 0.10 0.09 0.06 0.07 0.07 0.06 0.07 0.07 0.07 0.06 0.07 0.08
0.01 0.01 0.01 0.00 0.00 0.01 0.01 0.01 0.01 0.02 0.02 0.02 0.02 0.03 0.02 0.01 0.01 0.01 0.02 0.03 0.04 0.04 0.04 0.03 0.03 0.03 0.04 0.03 0.04 0.06 0.06 0.07 0.07 0.05 0.04 0.04 0.05 0.06 0.07 0.07 0.08 0.09 0.10 0.11
0.01 0.00 0.00 0.00 0.01 0.01 0.01 0.01 0.01 0.01 0.01 0.01 0.01 0.01 0.01 0.01 0.01 0.01 0.01 0.02 0.03 0.04 0.04 0.03 0.03 0.03 0.04 0.05 0.05 0.04 0.04 0.04 0.05 0.04 0.03 0.03 0.04 0.06 0.07 0.09 0.10 0.11 0.12 0.13
0.03 0.01 0.01 0.01 0.01 0.01 0.00 0.00 0.00 0.00 0.00 0.01 0.01 0.01 0.01 0.01 0.01 0.01 0.01 0.02 0.03 0.04 0.05 0.06 0.04 0.03 0.03 0.04 0.05 0.05 0.04 0.04 0.03 0.04 0.03 0.03 0.03 0.04 0.04 0.05 0.07 0.08 0.10 0.11
0.03 0.03 0.02 0.02 0.01 0.00 0.00 0.00 0.00 0.00 0.01 0.02 0.02 0.01 0.01 0.01 0.01 0.01 0.02 0.02 0.03 0.05 0.05 0.06 0.06 0.05 0.05 0.06 0.05 0.04 0.04 0.04 0.04 0.04 0.03 0.03 0.04 0.03 0.03 0.03 0.04 0.04 0.04 0.04
0.01 0.01 0.01 0.01 0.01 0.01 0.00 0.00 0.00 0.01 0.02 0.02 0.02 0.02 0.02 0.02 0.02 0.02 0.02 0.03 0.03 0.09 0.07 0.05 0.06 0.07 0.08 0.07 0.06 0.05 0.04 0.04 0.03 0.03 0.03 0.03 0.04 0.04 0.04 0.04 0.04 0.04 0.03 0.03
0.00 0.00 0.00 0.00 0.00 0.00 0.00 0.01 0.01 0.01 0.01 0.02 0.02 0.03 0.03 0.03 0.04 0.03 0.04 0.05 0.04 0.09 0.12 0.07 0.07 0.08 0.08 0.07 0.05 0.04 0.03 0.03 0.02 0.02 0.02 0.03 0.04 0.05 0.06 0.06 0.04 0.04 0.04 0.04
0.00 0.00 0.00 0.00 0.00 0.01 0.01 0.01 0.01 0.01 0.02 0.02 0.03 0.04 0.04 0.04 0.05 0.04 0.04 0.03 0.02 0.06 0.14 0.14 0.09 0.08 0.07 0.06 0.06 0.05 0.05 0.03 0.03 0.03 0.05 0.05 0.04 0.04 0.06 0.06 0.05 0.05 0.05 0.06
0.00 0.00 0.00 0.00 0.01 0.01 0.01 0.01 0.02 0.03 0.04 0.04 0.03 0.03 0.03 0.03 0.04 0.04 0.04 0.03 0.03 0.04 0.10 0.18 0.15 0.09 0.06 0.06 0.08 0.07 0.06 0.05 0.05 0.06 0.09 0.08 0.05 0.04 0.04 0.04 0.04 0.06 0.06 0.05
0.01 0.01 0.01 0.02 0.02 0.02 0.03 0.03 0.03 0.03 0.04 0.03 0.02 0.02 0.02 0.02 0.03 0.03 0.03 0.03 0.05 0.05 0.08 0.17 0.20 0.12 0.07 0.07 0.07 0.05 0.04 0.05 0.06 0.08 0.07 0.05 0.04 0.04 0.04 0.04 0.04 0.06 0.07 0.07
0.02 0.02 0.02 0.03 0.04 0.04 0.03 0.03 0.02 0.02 0.02 0.02 0.02 0.02 0.02 0.02 0.02 0.02 0.02 0.02 0.07 0.08 0.06 0.11 0.18 0.17 0.09 0.08 0.07 0.04 0.03 0.03 0.03 0.02 0.03 0.02 0.03 0.03 0.03 0.04 0.05 0.05 0.06 0.06
0.01 0.01 0.02 0.04 0.04 0.03 0.03 0.02 0.01 0.02 0.02 0.02 0.02 0.01 0.01 0.02 0.02 0.02 0.02 0.04 0.06 0.11 0.09 0.08 0.15 0.18 0.10 0.08 0.06 0.04 0.03 0.02 0.02 0.02 0.02 0.03 0.03 0.03 0.04 0.05 0.05 0.05 0.05 0.04
0.02 0.03 0.03 0.04 0.04 0.04 0.04 0.03 0.03 0.02 0.02 0.02 0.02 0.02 0.02 0.02 0.02 0.03 0.04 0.04 0.04 0.06 0.08 0.06 0.09 0.11 0.09 0.07 0.05 0.03 0.03 0.03 0.02 0.03 0.03 0.03 0.03 0.03 0.04 0.05 0.06 0.05 0.04 0.03
0.02 0.03 0.03 0.05 0.05 0.04 0.04 0.03 0.03 0.03 0.02 0.01 0.02 0.03 0.03 0.03 0.03 0.04 0.05 0.04 0.04 0.04 0.06 0.07 0.06 0.06 0.06 0.06 0.05 0.04 0.03 0.02 0.02 0.02 0.01 0.01 0.02 0.02 0.02 0.03 0.04 0.03 0.03 0.02
0.02 0.03 0.03 0.04 0.04 0.04 0.04 0.03 0.03 0.02 0.02 0.02 0.02 0.02 0.03 0.03 0.04 0.05 0.05 0.04 0.03 0.03 0.04 0.06 0.06 0.04 0.04 0.03 0.03 0.04 0.03 0.02 0.02 0.02 0.01 0.01 0.02 0.01 0.01 0.02 0.02 0.03 0.02 0.03
0.03 0.03 0.03 0.03 0.03 0.03 0.03 0.04 0.03 0.03 0.03 0.03 0.03 0.03 0.03 0.03 0.03 0.04 0.03 0.02 0.02 0.03 0.03 0.04 0.05 0.05 0.03 0.02 0.02 0.02 0.01 0.01 0.01 0.01 0.01 0.01 0.01 0.01 0.02 0.02 0.02 0.02 0.02 0.02
0.04 0.04 0.04 0.03 0.03 0.03 0.02 0.02 0.01 0.02 0.02 0.02 0.02 0.02 0.02 0.02 0.02 0.03 0.03 0.02 0.02 0.03 0.03 0.03 0.03 0.04 0.02 0.01 0.02 0.02 0.01 0.01 0.01 0.01 0.01 0.02 0.02 0.02 0.01 0.02 0.02 0.02 0.02 0.02
0.04 0.04 0.04 0.04 0.04 0.03 0.02 0.02 0.01 0.01 0.01 0.01 0.01 0.01 0.02 0.02 0.01 0.02 0.03 0.03 0.03 0.03 0.02 0.02 0.03 0.02 0.02 0.02 0.03 0.02 0.02 0.02 0.02 0.02 0.02 0.03 0.03 0.02 0.02 0.01 0.02 0.02 0.02 0.02
0.04 0.04 0.04 0.04 0.05 0.04 0.04 0.03 0.03 0.03 0.02 0.02 0.02 0.02 0.02 0.02 0.02 0.02 0.03 0.02 0.03 0.03 0.02 0.02 0.03 0.03 0.02 0.03 0.03 0.03 0.03 0.03 0.03 0.03 0.03 0.02 0.02 0.02 0.02 0.02 0.02 0.02 0.02 0.03
0.04 0.04 0.05 0.04 0.04 0.03 0.04 0.04 0.04 0.04 0.03 0.03 0.03 0.02 0.02 0.02 0.02 0.02 0.02 0.02 0.03 0.04 0.03 0.02 0.03 0.03 0.03 0.04 0.04 0.04 0.04 0.04 0.03 0.02 0.02 0.02 0.01 0.01 0.01 0.02 0.02 0.02 0.02 0.03
MSLP
998.67 999.16 999.77 1000.47 1001.19 1001.85 1002.37 1002.66 1002.70 1002.46 1001.98 1001.33 1000.58 999.86 999.24 998.81 998.61 998.65 998.90 999.32 999.85 1000.42 1000.99 1001.53 1002.04 1002.53 1003.02 1003.54 1004.10 1004.70 1005.33 1005.96 1006.55 1007.09 1007.53 1007.87 1008.12 1008.29 1008.42 1008.54 1008.69 1008.87 1009.11 1009.40
998.62 998.89 999.22 999.59 999.98 1000.33 1000.61 1000.77 1000.79 1000.66 1000.39 1000.01 999.58 999.15 998.79 998.52 998.40 998.41 998.57 998.84 999.19 999.60 1000.04 1000.51 1000.99 1001.50 1002.05 1002.65 1003.28 1003.94 1004.62 1005.27 1005.88 1006.41 1006.85 1007.20 1007.46 1007.66 1007.82 1007.98 1008.16 1008.37 1008.63 1008.92
998.85 998.92 998.98 999.05 999.11 999.17 999.20 999.21 999.17 999.09 998.96 998.79 998.60 998.41 998.24 998.11 998.04 998.03 998.10 998.24 998.45 998.73 999.07 999.48 999.96 1000.51 1001.13 1001.80 1002.52 1003.26 1003.98 1004.66 1005.28 1005.82 1006.25 1006.59 1006.86 1007.07 1007.26 1007.44 1007.64 1007.88 1008.15 1008.43
999.19 999.08 998.92 998.72 998.50 998.29 998.10 997.94 997.83 997.75 997.70 997.68 997.66 997.65 997.63 997.61 997.59 997.58 997.59 997.64 997.75 997.94 998.22 998.61 999.10 999.69 1000.38 1001.14 1001.93 1002.73 1003.50 1004.21 1004.84 1005.37 1005.80 1006.13 1006.40 1006.61 1006.81 1007.01 1007.24 1007.48 1007.76 1008.04
999.39 999.13 998.79 998.38 997.94 997.51 997.14 996.85 996.66 996.57 996.58 996.66 996.78 996.91 997.03 997.11 997.16 997.18 997.18 997.20 997.27 997.42 997.68 998.06 998.58 999.22 999.97 1000.78 1001.64 1002.48 1003.28 1004.00 1004.63 1005.14 1005.56 1005.88 1006.14 1006.36 1006.57 1006.78 1007.01 1007.27 1007.55 1007.84
999.26 998.88 998.39 997.82 997.22 996.65 996.15 995.77 995.54 995.46 995.53 995.71 995.97 996.24 996.50 996.71 996.86 996.95 997.01 997.05 997.14 997.30 997.57 997.98 998.53 999.21 999.99 1000.85 1001.72 1002.58 1003.38 1004.09 1004.69 1005.19 1005.58 1005.88 1006.13 1006.35 1006.56 1006.79 1007.03 1007.30 1007.58 1007.87
998.68 998.19 997.59 996.92 996.23 995.57 995.02 994.62 994.40 994.38 994.54 994.84 995.25 995.69 996.12 996.49 996.79 997.01 997.17 997.31 997.46 997.68 997.99 998.43 999.00 999.70 1000.49 1001.35 1002.21 1003.05 1003.81 1004.48 1005.05 1005.50 1005.86 1006.14 1006.38 1006.59 1006.81 1007.03 1007.29 1007.56 1007.85 1008.14
997.71 997.09 996.41 995.67 994.94 994.28 993.74 993.38 993.24 993.32 993.62 994.08 994.67 995.31 995.94 996.51 997.00 997.40 997.71 997.98 998.23 998.53 998.90 999.38 999.96 1000.65 1001.42 1002.23 1003.04 1003.82 1004.52 1005.12 1005.63 1006.03 1006.34 1006.60 1006.81 1007.02 1007.23 1007.46 1007.72 1008.00 1008.29 1008.58
996.49 995.77 995.00 994.24 993.51 992.88 992.41 992.15 992.14 992.37 992.84 993.49 994.28 995.14 995.99 996.79 997.49 998.08 998.58 998.99 999.37 999.75 1000.18 1000.67 1001.25 1001.90 1002.61 1003.35 1004.08 1004.76 1005.37 1005.90 1006.32 1006.66 1006.93 1007.14 1007.33 1007.53 1007.73 1007.96 1008.22 1008.50 1008.79 1009.08
995.28 994.45 993.63 992.85 992.16 991.60 991.24 991.11 991.24 991.65 992.30 993.15 994.15 995.22 996.29 997.30 998.21 999.00 999.66 1000.22 1000.70 1001.16 1001.62 1002.12 1002.66 1003.25 1003.88 1004.52 1005.14 1005.72 1006.23 1006.66 1007.00 1007.27 1007.48 1007.66 1007.82 1008.00 1008.19 1008.42 1008.67 1008.94 1009.22 1009.50
994.34 993.43 992.57 991.79 991.14 990.67 990.42 990.43 990.72 991.29 992.11 993.14 994.32 995.57 996.82 998.00 999.08 1000.02 1000.81 1001.48 1002.05 1002.55 1003.02 1003.49 1003.98 1004.50 1005.03 1005.56 1006.06 1006.53 1006.93 1007.27 1007.53 1007.74 1007.90 1008.04 1008.17 1008.32 1008.50 1008.71 1008.95 1009.20 1009.47 1009.72
993.86 992.90 992.03 991.28 990.69 990.31 990.16 990.29 990.70 991.40 992.34 993.50 994.80 996.16 997.52 998.82 1000.00 1001.03 1001.90 1002.63 1003.23 1003.74 1004.20 1004.62 1005.04 1005.47 1005.90 1006.31 1006.71 1007.07 1007.38 1007.63 1007.83 1007.98 1008.10 1008.21 1008.31 1008.44 1008.60 1008.79 1009.00 1009.24 1009.48 1009.71
993.89 992.93 992.09 991.39 990.87 990.57 990.51 990.73 991.22 991.99 993.00 994.21 995.56 996.96 998.36 999.69 1000.90 1001.95 1002.85 1003.58 1004.17 1004.66 1005.07 1005.43 1005.77 1006.11 1006.44 1006.76 1007.06 1007.33 1007.57 1007.75 1007.90 1008.01 1008.10 1008.18 1008.27 1008.38 1008.51 1008.67 1008.86 1009.07 1009.28 1009.47
994.35 993.47 992.70 992.08 991.64 991.42 991.43 991.70 992.23 993.02 994.03 995.23 996.55 997.92 999.28 1000.57 1001.74 1002.76 1003.61 1004.30 1004.85 1005.28 1005.63 1005.93 1006.20 1006.45 1006.69 1006.93 1007.16 1007.37 1007.54 1007.69 1007.80 1007.89 1007.96 1008.03 1008.10 1008.19 1008.31 1008.45 1008.61 1008.78 1008.95 1009.11
995.09 994.34 993.70 993.19 992.85 992.69 992.76 993.05 993.59 994.35 995.32 996.45 997.68 998.97 1000.24 1001.43 1002.52 1003.45 1004.23 1004.86 1005.34 1005.71 1005.99 1006.22 1006.42 1006.60 1006.78 1006.96 1007.13 1007.29 1007.43 1007.55 1007.65 1007.73 1007.79 1007.85 1007.92 1008.00 1008.10 1008.22 1008.36 1008.50 1008.63 1008.74
995.93 995.37 994.89 994.52 994.28 994.21 994.31 994.62 995.13 995.85 996.73 997.76 998.89 1000.05 1001.20 1002.28 1003.25 1004.09 1004.78 1005.33 1005.74 1006.05 1006.27 1006.44 1006.58 1006.71 1006.84 1006.97 1007.10 1007.23 1007.35 1007.46 1007.55 1007.63 1007.70 1007.76 1007.83 1007.91 1008.01 1008.11 1008.22 1008.33 1008.42 1008.49
996.74 996.39 996.09 995.87 995.75 995.75 995.90 996.22 996.70 997.35 998.16 999.08 1000.08 1001.12 1002.14 1003.11 1003.97 1004.72 1005.33 1005.80 1006.16 1006.41 1006.59 1006.72 1006.82 1006.91 1007.00 1007.09 1007.19 1007.30 1007.40 1007.50 1007.59 1007.68 1007.75 1007.83 1007.91 1007.99 1008.08 1008.18 1008.27 1008.35 1008.40 1008.42
997.47 997.32 997.20 997.13 997.12 997.19 997.38 997.70 998.16 998.76 999.49 1000.32 1001.22 1002.15 1003.07 1003.93 1004.71 1005.38 1005.93 1006.36 1006.67 1006.89 1007.04 1007.14 1007.21 1007.27 1007.33 1007.40 1007.47 1007.56 1007.65 1007.74 1007.83 1007.92 1008.00 1008.09 1008.18 1008.27 1008.36 1008.45 1008.52 1008.58 1008.59 1008.57
998.12 998.16 998.19 998.24 998.32 998.47 998.69 999.02 999.46 1000.02 1000.69 1001.45 1002.27 1003.13 1003.97 1004.76 1005.48 1006.10 1006.62 1007.01 1007.30 1007.51 1007.64 1007.72 1007.77 1007.81 1007.85 1007.89 1007.95 1008.01 1008.08 1008.16 1008.25 1008.34 1008.43 1008.53 1008.63 1008.72 1008.82 1008.89 1008.95 1008.98 1008.96 1008.90
998.80 998.96 999.10 999.24 999.39 999.58 999.83 1000.16 1000.60 1001.13 1001.76 1002.48 1003.25 1004.06 1004.85 1005.60 1006.29 1006.88 1007.37 1007.76 1008.04 1008.23 1008.35 1008.43 1008.46 1008.48 1008.50 1008.52 1008.55 1008.60 1008.65 1008.72 1008.80 1008.88 1008.97 1009.07 1009.18 1009.27 1009.36 1009.44 1009.48 1009.48 1009.43 1009.32
999.59 999.82 1000.02 1000.20 1000.39 1000.60 1000.86 1001.20 1001.63 1002.15 1002.76 1003.45 1004.19 1004.96 1005.73 1006.45 1007.11 1007.69 1008.16 1008.54 1008.81 1009.00 1009.12 1009.18 1009.21 1009.21 1009.21 1009.21 1009.23 1009.25 1009.28 1009.34 1009.40 1009.48 1009.57 1009.66 1009.76 1009.85 1009.94 1009.99 1010.01 1009.99 1009.90 1009.75
1000.53 1000.78 1000.99 1001.18 1001.38 1001.60 1001.86 1002.20 1002.62 1003.13 1003.73 1004.40 1005.13 1005.87 1006.61 1007.31 1007.95 1008.50 1008.96 1009.31 1009.58 1009.75 1009.86 1009.91 1009.92 1009.92 1009.90 1009.89 1009.89 1009.90 1009.92 1009.96 1010.01 1010.08 1010.16 1010.24 1010.32 1010.40 1010.46 1010.49 1010.49 1010.43 1010.31 1010.12
1001.60 1001.84 1002.03 1002.22 1002.40 1002.61 1002.88 1003.21 1003.64 1004.15 1004.74 1005.39 1006.10 1006.82 1007.52 1008.19 1008.79 1009.30 1009.72 1010.05 1010.28 1010.43 1010.52 1010.56 1010.56 1010.55 1010.52 1010.51 1010.50 1010.50 1010.52 1010.55 1010.60 1010.65 1010.71 1010.77 1010.83 1010.88 1010.90 1010.90 1010.86 1010.76 1010.60 1010.38
1002.75 1002.95 1003.12 1003.28 1003.46 1003.67 1003.94 1004.28 1004.71 1005.22 1005.80 1006.45 1007.12 1007.81 1008.47 1009.08 1009.62 1010.08 1010.45 1010.72 1010.91 1011.03 1011.09 1011.10 1011.10 1011.08 1011.06 1011.05 1011.05 1011.06 1011.08 1011.11 1011.14 1011.18 1011.22 1011.25 1011.27 1011.27 1011.25 1011.19 1011.10 1010.96 1010.76 1010.51
1003.86 1004.03 1004.19 1004.34 1004.52 1004.75 1005.03 1005.40 1005.84 1006.36 1006.94 1007.57 1008.21 1008.85 1009.45 1010.00 1010.46 1010.85 1011.14 1011.35 1011.48 1011.55 1011.57 1011.57 1011.55 1011.54 1011.53 1011.53 1011.55 1011.57 1011.60 1011.64 1011.66 1011.68 1011.69 1011.67 1011.64 1011.58 1011.49 1011.37 1011.22 1011.02 1010.78 1010.49
1004.85 1005.02 1005.18 1005.36 1005.56 1005.82 1006.15 1006.54 1007.02 1007.55 1008.13 1008.74 1009.35 1009.93 1010.46 1010.93 1011.30 1011.60 1011.80 1011.93 1011.99 1012.01 1012.00 1011.98 1011.96 1011.95 1011.96 1011.99 1012.02 1012.07 1012.11 1012.15 1012.16 1012.15 1012.12 1012.05 1011.95 1011.81 1011.65 1011.45 1011.22 1010.96 1010.66 1010.34
1005.69 1005.88 1006.07 1006.29 1006.55 1006.86 1007.25 1007.69 1008.20 1008.76 1009.34 1009.93 1010.50 1011.02 1011.48 1011.85 1012.13 1012.33 1012.44 1012.49 1012.48 1012.45 1012.40 1012.36 1012.34 1012.35 1012.38 1012.43 1012.50 1012.56 1012.62 1012.65 1012.64 1012.60 1012.51 1012.37 1012.19 1011.96 1011.70 1011.41 1011.10 1010.77 1010.42 1010.05
Thickness
5820 5830 5832 5831 5831 5835 5830 5827 5817 5817 5815 5821 5829 5834 5833 5832 5832 5828 5824 5824 5823 5819 5816 5815 5813 5811 5809 5806 5803 5800 5795 5790 5786 5784 5782 5779 5776 5773 5770 5767 5765 5762 5760 5757
5807 5821 5824 5820 5828 5833 5832 5833 5828 5825 5819 5834 5833 5834 5830 5828 5825 5820 5818 5819 5819 5816 5812 5809 5806 5805 5802 5800 5798 5795 5791 5787 5784 5781 5778 5775 5772 5769 5765 5763 5760 5758 5755 5752
5791 5809 5808 5798 5817 5824 5825 5830 5827 5813 5816 5828 5824 5821 5821 5822 5822 5818 5817 5816 5814 5812 5809 5806 5803 5800 5797 5795 5793 5789 5785 5782 5779 5777 5773 5771 5769 5765 5761 5758 5756 5752 5750 5747
5785 5786 5768 5802 5833 5831 5823 5824 5826 5824 5822 5823 5822 5822 5823 5823 5819 5815 5814 5813 5812 5810 5807 5804 5802 5798 5794 5791 5787 5783 5780 5777 5775 5772 5768 5766 5763 5759 5756 5754 5750 5747 5745 5742
5774 5768 5775 5801 5818 5821 5813 5806 5821 5817 5817 5819 5820 5815 5810 5816 5815 5811 5811 5811 5810 5809 5806 5802 5798 5794 5789 5784 5781 5777 5774 5772 5770 5767 5763 5760 5757 5754 5752 5749 5745 5742 5740 5737
5767 5757 5754 5782 5812 5824 5813 5790 5812 5814 5809 5809 5806 5788 5790 5806 5809 5806 5805 5804 5803 5803 5800 5795 5792 5789 5782 5778 5773 5770 5769 5767 5765 5762 5758 5755 5752 5750 5747 5744 5740 5738 5734 5731
5761 5754 5765 5795 5810 5810 5776 5776 5804 5807 5803 5799 5792 5788 5793 5799 5799 5798 5797 5796 5796 5794 5790 5786 5785 5781 5775 5771 5768 5766 5764 5761 5758 5756 5753 5750 5748 5745 5742 5739 5735 5732 5728 5726
5757 5749 5754 5793 5797 5783 5778 5793 5798 5798 5798 5795 5792 5792 5790 5789 5788 5788 5787 5786 5785 5781 5779 5779 5777 5773 5768 5764 5763 5761 5757 5754 5751 5749 5748 5746 5742 5739 5736 5733 5728 5725 5721 5718
5760 5758 5774 5787 5786 5788 5791 5786 5788 5790 5791 5790 5784 5781 5780 5778 5778 5778 5776 5775 5773 5770 5768 5768 5767 5765 5759 5757 5756 5752 5748 5745 5743 5742 5740 5738 5735 5731 5728 5726 5722 5719 5715 5711
5753 5761 5770 5775 5778 5779 5782 5779 5784 5784 5783 5782 5775 5774 5772 5769 5768 5766 5764 5764 5762 5759 5756 5755 5756 5756 5753 5750 5748 5743 5739 5737 5735 5733 5731 5729 5727 5725 5722 5719 5715 5711 5707 5704
5743 5754 5759 5762 5766 5770 5772 5775 5775 5775 5775 5772 5769 5766 5763 5760 5758 5756 5754 5753 5752 5748 5745 5745 5745 5744 5744 5741 5738 5734 5730 5728 5726 5725 5723 5720 5717 5715 5713 5710 5707 5702 5700 5697
5731 5744 5745 5748 5757 5762 5762 5762 5763 5763 5761 5762 5760 5756 5754 5751 5750 5748 5745 5744 5742 5739 5737 5735 5735 5733 5733 5732 5729 5725 5722 5720 5718 5717 5714 5711 5708 5704 5701 5700 5697 5694 5691 5688
5738 5744 5744 5747 5751 5754 5753 5755 5755 5754 5751 5750 5749 5748 5744 5741 5739 5738 5736 5734 5732 5731 5729 5728 5726 5724 5723 5723 5721 5718 5715 5713 5712 5710 5706 5704 5701 5698 5693 5689 5686 5684 5681 5679
5730 5731 5730 5734 5737 5743 5744 5745 5745 5743 5743 5741 5739 5737 5734 5731 5730 5728 5727 5726 5724 5723 5721 5720 5718 5716 5716 5715 5712 5711 5709 5707 5704 5702 5700 5698 5695 5693 5690 5685 5681 5677 5673 5669
5718 5721 5721 5724 5727 5730 5732 5732 5730 5729 5729 5728 5727 5725 5723 5721 5719 5718 5719 5718 5716 5714 5713 5712 5709 5708 5708 5707 5705 5703 5702 5700 5698 5696 5694 5692 5690 5687 5684 5680 5676 5673 5668 5663
5707 5710 5711 5712 5713 5715 5716 5716 5715 5715 5715 5714 5713 5712 5712 5712 5711 5709 5709 5709 5706 5704 5704 5703 5701 5701 5700 5699 5697 5695 5694 5691 5690 5689 5688 5685 5683 5680 5677 5674 5670 5667 5663 5659
5690 5692 5696 5698 5700 5703 5704 5704 5704 5704 5704 5703 5702 5702 5701 5700 5699 5698 5698 5699 5698 5697 5696 5695 5693 5693 5692 5691 5689 5688 5688 5686 5682 5682 5681 5679 5676 5673 5671 5668 5664 5661 5658 5654
5686 5687 5690 5690 5691 5692 5694 5696 5696 5695 5694 5694 5694 5692 5690 5688 5686 5686 5688 5689 5688 5687 5687 5687 5686 5685 5684 5684 5681 5680 5680 5679 5677 5675 5673 5671 5668 5666 5664 5660 5658 5654 5650 5647
5677 5679 5681 5682 5684 5684 5683 5684 5686 5686 5686 5685 5683 5681 5680 5678 5677 5677 5678 5676 5676 5675 5676 5678 5676 5676 5676 5675 5672 5672 5671 5671 5669 5668 5666 5663 5661 5659 5657 5654 5651 5648 5645 5642
5666 5669 5671 5673 5675 5674 5673 5674 5675 5675 5675 5675 5673 5671 5669 5668 5668 5668 5667 5665 5665 5665 5667 5667 5667 5667 5666 5665 5663 5665 5665 5663 5661 5660 5658 5656 5654 5651 5649 5647 5644 5641 5638 5635
5656 5659 5660 5662 5663 5665 5666 5666 5665 5665 5665 5665 5663 5661 5659 5659 5659 5658 5657 5656 5657 5657 5658 5656 5657 5657 5657 5655 5654 5657 5657 5655 5654 5652 5649 5648 5645 5643 5641 5639 5636 5633 5630 5628
5648 5650 5652 5654 5655 5655 5657 5658 5657 5657 5656 5656 5655 5654 5652 5651 5651 5650 5649 5649 5650 5648 5649 5649 5649 5648 5647 5647 5649 5649 5648 5647 5645 5644 5641 5639 5637 5635 5632 5630 5627 5625 5623 5620
5641 5643 5645 5646 5647 5647 5648 5649 5649 5649 5648 5648 5647 5646 5646 5645 5645 5643 5641 5643 5644 5641 5641 5641 5640 5639 5638 5640 5641 5641 5640 5639 5637 5635 5633 5631 5630 5627 5625 5622 5620 5618 5615 5613
5635 5636 5638 5640 5640 5640 5639 5641 5642 5642 5642 5642 5642 5642 5641 5640 5639 5639 5638 5636 5635 5633 5634 5633 5631 5631 5630 5632 5632 5632 5631 5630 5628 5627 5625 5623 5622 5620 5617 5615 5613 5612 5609 5606
5630 5632 5633 5632 5632 5633 5634 5635 5635 5635 5635 5636 5637 5637 5637 5636 5634 5633 5631 5630 5627 5626 5627 5625 5624 5623 5625 5625 5624 5623 5622 5621 5620 5618 5616 5615 5614 5612 5610 5609 5607 5604 5602 5599
5624 5625 5627 5627 5629 5629 5631 5630 5630 5629 5629 5630 5630 5630 5630 5630 5628 5627 5625 5623 5622 5619 5619 5619 5618 5616 5618 5618 5617 5615 5614 5613 5612 5610 5609 5608 5607 5605 5604 5602 5600 5598 5595 5592
5619 5621 5621 5623 5625 5626 5626 5626 5625 5623 5623 5623 5621 5622 5622 5621 5620 5619 5618 5617 5615 5614 5614 5613 5612 5611 5611 5610 5609 5608 5607 5606 5605 5603 5602 5601 5600 5598 5597 5594 5592 5590 5587 5584